This is the latest recevied weather packets stored in our database for station/object LA3SP-1. If no packets are shown the sender has not sent any weather packets the latest 10 day(s).
| Time | Temp. | Humidity | Pressure | Rain* | Wind** | Luminosity | Snow |
|---|---|---|---|---|---|---|---|
| 1788659298 | 7.22° C | 80% | 1010.5 hPa | 0 mm | - | - | - |
| 1788658697 | 6.67° C | 82% | 1010.4 hPa | 0 mm | - | - | - |
| 1788658095 | 6.67° C | 82% | 1010.2 hPa | 0 mm | - | - | - |
| 1788657494 | 6.67° C | 82% | 1010 hPa | 0 mm | - | - | - |
| 1788656291 | 6.67° C | 82% | 1009.8 hPa | 0 mm | - | - | - |
| 1788655690 | 6.67° C | 82% | 1009.9 hPa | 0 mm | - | - | - |
| 1788655088 | 6.67° C | 82% | 1009.8 hPa | 0 mm | - | - | - |
| 1788654487 | 6.67° C | 82% | 1009.6 hPa | 0 mm | - | - | - |
| 1788653886 | 6.67° C | 82% | 1009.6 hPa | 0 mm | - | - | - |
| 1788652681 | 5.56° C | 83% | 1009.5 hPa | 0 mm | - | - | - |
| 1788651479 | 5.56° C | 82% | 1009.2 hPa | 0 mm | - | - | - |
| 1788650878 | 5.56° C | 82% | 1009.3 hPa | 0 mm | - | - | - |
| 1788650276 | 6.11° C | 81% | 1009.2 hPa | 0 mm | - | - | - |
| 1788649077 | 6.11° C | 80% | 1009 hPa | 0 mm | - | - | - |
| 1788647269 | 7.22° C | 78% | 1008.5 hPa | 0 mm | - | - | - |
| 1788646668 | 7.78° C | 78% | 1008.6 hPa | 0 mm | - | - | - |
| 1788646066 | 7.78° C | 78% | 1008.6 hPa | 0 mm | - | - | - |
| 1788645465 | 7.22° C | 79% | 1008.6 hPa | 0 mm | - | - | - |
| 1788644863 | 7.22° C | 79% | 1008.4 hPa | 0 mm | - | - | - |
| 1788644262 | 7.22° C | 79% | 1008.4 hPa | 0 mm | - | - | - |
| 1788643660 | 7.22° C | 79% | 1008.2 hPa | 0 mm | - | - | - |
| 1788642458 | 7.22° C | 79% | 1007.8 hPa | 0 mm | - | - | - |
| 1788641857 | 7.22° C | 79% | 1007.7 hPa | 0 mm | - | - | - |
| 1788641255 | 7.22° C | 78% | 1007.6 hPa | 0 mm | - | - | - |
| 1788640654 | 7.22° C | 78% | 1007.7 hPa | 0 mm | - | - | - |
* Rain latest 24 hours (hover to see other rain measurements)
** Current wind speed in m/s (hover to see current wind gust speed)